Other Public Products
Issued by NWS Grand Forks, ND

Home | Current Version | Previous Version | Graphics & Text | Print | Product List | Glossary On
Versions: 1 2 3 4 5 6 7 8 9 10 11 12 13 14 15 16 17 18 19 20 21 22 23 24 25 26 27 28 29 30 31 32 33 34 35 36 37 38 39 40 41 42 43 44 45 46 47 48 49 50
000
FPUS83 KFGF 231031
OPUFGF
PRAIRIE TO PINES WEATHER ROUNDUP
NATIONAL WEATHER SERVICE EASTERN NORTH DAKOTA/GRAND FORKS ND
500 AM CDT MON OCT 23 2017

 **SATELLITE DATA USED TO AUGMENT SKY COVER AT AUTOMATED STATIONS**
 *****  WEATHER ACROSS EASTERN NORTH DAKOTA  *****

CITY           SKY/WX    TMP DP  RH WIND       PRES   REMARKS
GRAND FORKS    FAIR      50  40  68 W15       29.64R
GRAND FORKS AF FAIR      49  37  64 NW15G24   29.65R
GRAND CITY NWS NOT AVBL
BUXTON           N/A    N/A N/A N/A W14G25      N/A
DEVILS LAKE    MOCLDY    43  37  81 NW25G33   29.73R
FARGO          MOCLDY    51  44  77 W12       29.68R
WAHPETON ARPT  NOT AVBL
$$

 *****  WEATHER ACROSS CENTRAL AND WESTERN NORTH DAKOTA  *****

CITY           SKY/WX    TMP DP  RH WIND       PRES   REMARKS
JAMESTOWN      FAIR      48  35  60 W23G31    29.75R
BISMARCK       FAIR      49  38  65 W22G28    29.88R
MINOT          FAIR      43  36  76 W23G29    29.85R
MINOT AFB      CLOUDY    42  36  80 NW23G29   29.84R
GARRISON         N/A     43  37  79 NW12      29.87R
WILLISTON      CLEAR     43  34  70 SW10      29.98R
DICKINSON      FAIR      45  35  68 W25G32    29.96R
HETTINGER      FAIR      42  34  73 W21G26    30.02R
$$

 *****  OTHER OBSERVATIONS NORTHEAST NORTH DAKOTA  *****

CITY           SKY/WX    TMP DP  RH WIND       PRES   REMARKS
WALHALLA       FAIR     N/A N/A N/A NW22      29.66R
LANGDON        NOT AVBL
CAVALIER       PTSUNNY   48  41  76 NW17G24   29.64R
GRAFTON        NOT AVBL
CANDO          CLOUDY    43  43 100 NW23G33   29.76R
FORT TOTTEN      N/A     44  37  75 NW14      29.95S
ROLLA          MIX PCPN  41  41 100 NW26      29.77R
RUGBY          NOT AVBL
 ***** THE ABOVE OBSERVATIONS ARE NON NWS ARE NOT QUALITY
        CONTROLLED AND MAY MIS-REPORT RAIN FOR SNOW...
$$

 *****  OTHER OBSERVATIONS SOUTHEAST NORTH DAKOTA *****

CITY           SKY/WX    TMP DP  RH WIND       PRES   REMARKS
COOPERSTOWN    FAIR      46  37  71 NW26G37   29.72R
VALLEY CITY    NOT AVBL
OAKES          NOT AVBL
GWINNER        PTSUNNY   55  37  50 NW18G30   29.77R
BUFFALO          N/A     50  35  56 E16         N/A
WYNDMERE       NOT AVBL
 ***** THE ABOVE OBSERVATIONS ARE NON NWS ARE NOT QUALITY
       CONTROLLED AND MAY MIS-REPORT RAIN FOR SNOW...
$$

  *****  WEATHER ACROSS NORTHERN MINNESOTA  *****

CITY           SKY/WX    TMP DP  RH WIND       PRES   REMARKS
FLAG ISLAND    FAIR      52  39  62 SW12      29.54R
WARROAD        FAIR      50  46  87 SW5       29.56S
ROSEAU         FAIR      48  45  87 SW6       29.56S
HALLOCK        FAIR      48  39  71 NW14      29.60R
THF RVR FALLS  FAIR      50  43  77 W17       29.62R
HALSTAD          N/A     50  39  65 NW22        N/A
FOSSTON        FAIR      46  43  87 SW10      29.65R
BAUDETTE       LGT RAIN  50  46  86 SW10G21   29.58R
WASKISH        DRIZZLE   50  46  87 CALM      29.61F
CROOKSTON      FAIR      50  43  76 NW15      29.64S
$$
  *****  WEATHER ACROSS CENTRAL AND WEST MINNESOTA  *****

CITY           SKY/WX    TMP DP  RH WIND       PRES   REMARKS
BEMIDJI        CLOUDY    47  42  82 W7        29.63S
PARK RAPIDS    FAIR      50  40  68 W12       29.64S
WADENA         FAIR      54  43  66 W10       29.68R
DETROIT LAKES  RAIN      52  43  71 W8        29.69R
MOORHEAD       FAIR      52  41  66 W18       29.70R
FERGUS FALLS   FAIR      52  41  66 W14       29.72R
ELBOW LAKE     FAIR      52  42  69 NW13      29.73R
MORRIS MN      FAIR      54  43  66 W15       29.75R
STAPLES        MOCLDY    54  39  58 SW7       29.68S
WHEATON        FAIR      54  39  58 W14G21    29.77R
$$
  *****  WEATHER ELSEWHERE ACROSS MINNESOTA  *****

CITY           SKY/WX    TMP DP  RH WIND       PRES   REMARKS
DULUTH         CLOUDY    52  34  50 S15       29.71F
INTRNTL FALLS  CLOUDY    53  36  52 S8G17     29.61S
ELY            CLOUDY    52  30  43 S9        29.67F
CLOQUET        CLOUDY    54  30  40 S8        29.70F
BRAINERD       MOCLDY    53  35  50 S10       29.68F
HIBBING        CLOUDY    50  33  52 S7        29.67F
ALEXANDRIA     FAIR      56  42  59 W15G23    29.73S
SAINT CLOUD    CLOUDY    51  38  60 S9        29.74F
MINNEAPOLIS    MOCLDY    51  37  58 SE8       29.78F
$$

  *****  WEATHER ACROSS SOUTH DAKOTA  *****

CITY           SKY/WX    TMP DP  RH WIND       PRES   REMARKS
SIOUX FALLS    MOCLDY    53  39  59 NW12      29.86R
BROOKINGS      FAIR      52  41  66 NW15      29.85R
WATERTOWN      FAIR      52  42  69 W16       29.83R
HURON          FAIR      56  40  55 NW28G37   29.88R
SISSETON         N/A     54  41  61 W21G30    29.75R
ABERDEEN       FAIR      50  40  68 W18G31    29.84R
MITCHELL       FAIR      56  42  59 NW17      29.92R
PIERRE         FAIR      52  36  54 NW25G35   29.99R
MOBRIDGE       FAIR      50  39  66 NW23G32   29.90R
RAPID CITY     FAIR      50  21  32 NW30G41   30.12R
$$

  *****  SOME WEATHER IN NEARBY STATES *****

CITY           SKY/WX    TMP DP  RH WIND       PRES   REMARKS
GLASGOW MT     FAIR      42  32  67 W13       30.09R
GREAT FALLS MT FAIR      43  20  39 W17       30.28R
CHEYENNE WY    FAIR      53  27  36 NW22G33   30.23R
SCOTTSBLUFF NE CLOUDY    46  34  62 NW23G32   30.23R
OMAHA NE       FAIR      47  36  65 S9        29.86F
DES MOINES IA  FAIR      46  40  79 S9        29.90F
DAVENPORT IA   FOG       44  42  93 NW7       29.92F VSB 1/2
CHICAGO IL     RAIN      51  49  92 N9        29.93F FOG
EAU CLAIRE WI  FAIR      47  41  80 SE5       29.84F
LA CROSSE WI   MOCLDY    48  44  86 S10       29.90F
$$

  *****  SOME NATIONAL WEATHER *****

CITY           SKY/WX    TMP DP  RH WIND       PRES   REMARKS
LA GUARDIA NY  MOCLDY    63  61  93 NE6       30.31F
RALEIGH NC     CLOUDY    63  61  93 E9        30.19F
ATLANTA GA     LGT RAIN  69  69 100 SE9       29.93F
NEW ORLEANS LA FAIR      64  61  90 NW13G21   30.02R
OKLAHOMA CITY  FAIR      49  39  68 S6        30.06F
ALBUQUERQUE NM FAIR      53  24  32 N6        30.36F
SALT LAKE CITY FAIR      50  36  58 CALM      30.47R
LOS ANGELES CA FAIR      71  41  33 CALM      30.05S
BOISE ID       FOG       41  41 100 CALM      30.51R VSB 1/4
SEATTLE WA     MOCLDY    50  46  86 E6        30.55R
$$

*** WEATHER ACROSS MANITOBA...SASKATCHEWAN AND ONTARIO ***
                ***ONTARIO***

CITY           SKY/WX    TMP DP  RH WIND       PRES   REMARKS
GERALDTON      MOCLDY    45  41  87 S8        29.78F
THUNDER BAY    CLOUDY    52  45  76 S7        29.75F
SIOUX LOOKOUT  PTCLDY    50  37  62 S6        29.60S
TORONTO        PTCLDY    59  55  88 SE6       30.03F
BIG TROUT LK   CLOUDY    41  34  75 W12G20    29.55R
PICKLE LAKE    NOT AVBL
DRYDEN         PTCLDY    48  37  66 S7        29.59S
KENORA         MOCLDY    48  39  71 SE5       29.56S
$$
                *** MANITOBA***

CITY           SKY/WX    TMP DP  RH WIND       PRES   REMARKS
BRANDON        CLOUDY    41  37  87 NW12      29.78R
DAUPHIN        CLEAR     32  30  93 W8        29.78R WCI  25
ISLAND LAKE    CLOUDY    37  32  81 W17G25    29.61R
PILOT MOUND      N/A     41  39  93 NW21G29     N/A
THE PAS        CLOUDY    37  28  70 NW18G25   29.74R
THOMPSON       FLURRIES  32  28  86 W10       29.60R WCI  24
WINNIPEG       LGT RAIN  45  37  76 N16       29.64R
LYNN LAKE      CLEAR     30  28  93 NW9       29.66R WCI  22
CHURCHILL      CLOUDY    30  27  86 NW38G53   29.20R WCI  14
GILLAM         FLURRIES  32  27  80 W24G32    29.48R WCI  19
$$
                ***SASKATCHEWAN***

CITY           SKY/WX    TMP DP  RH WIND       PRES   REMARKS
ESTEVAN        PTCLDY    39  36  87 W13G20    29.92R
KINDERSLEY     PTCLDY    36  28  75 W15       30.02R
LLOYDMINSTER   CLEAR     37  32  81 W18       29.96R
PRINCE ALBERT  CLOUDY    32  32 100 W7        29.88R
REGINA         CLOUDY    37  34  87 W13       29.93R
YORKTON        CLEAR     32  32 100 W5        29.83R
N. BATTLEFORD  CLOUDY    41  34  75 W13G20    29.94R



USA.gov is the U.S. government's official web portal to all federal, state and local government web resources and services.